Regional Weather Roundup
Issued by NWS

Home | Current Version | Previous Version | Text Only | Print | Product List | Glossary Off
Versions: 1 2 3 4 5 6 7 8 9 10 11 12 13 14 15 16 17 18 19 20 21 22 23 24 25 26 27 28 29 30 31 32 33 34 35 36 37 38 39 40 41 42 43 44 45 46 47 48 49 50

000
ASUS43 KLSX 210359
RWRMO

WEATHER SUMMARY FOR MISSOURI
NATIONAL WEATHER SERVICE SPRINGFIELD MO
1100 PM CDT WED AUG 20 2014

NOTE: "FAIR" INDICATES FEW OR NO CLOUDS BELOW 12,000 FEET WITH NO
       SIGNIFICANT WEATHER AND/OR OBSTRUCTIONS TO VISIBILITY.
       CURRENT SKY AND/OR WEATHER CONDITIONS ARE NOT AVAILABLE FOR
       CHILLICOTHE AND FARMINGTON.

MOZ001>031-035>038-043-044-053-054-210500-
...NORTHERN AND WESTERN MISSOURI...

CITY           SKY/WX    TMP DP  RH WIND       PRES   REMARKS
KANSAS CTY INT CLEAR     80  70  71 S13       29.88R
KANSAS C DTWN  CLEAR     85  67  54 S12       29.88R
LEE`S SUMMIT   CLEAR     81  67  62 S10       29.91R
ST JOSEPH      CLEAR     81  72  74 S10       29.85R
KIRKSVILLE     CLEAR     78  74  87 S8        29.91S

$$
MOZ066>068-077>081-088>096-101>105-210500-
...SOUTHWEST MISSOURI...

CITY           SKY/WX    TMP DP  RH WIND       PRES   REMARKS
SPRINGFIELD    CLEAR     79  62  56 S12       29.99R
JOPLIN         CLEAR     80  64  58 S14       29.95R

$$
MOZ032>034-039>042-045>050-055>058-069>072-210500-
...CENTRAL MISSOURI...

CITY           SKY/WX    TMP DP  RH WIND       PRES   REMARKS
COLUMBIA       CLEAR     74  72  93 SE7       29.95R
JEFFERSON CITY CLEAR     74  72  93 E6        29.94R
ROLLA          PTCLDY    74  68  81 S7        29.97R
SEDALIA        CLEAR     78  70  76 S10       29.94R
OSAGE BEACH    CLEAR     77  70  78 S5        29.96S

$$
MOZ051-052-059>065-210500-
...EAST CENTRAL MISSOURI...

CITY           SKY/WX    TMP DP  RH WIND       PRES   REMARKS
ST LOUIS INTL  CLOUDY    76  72  87 SE6       29.98F
SPIRIT OF STL  CLOUDY    73  71  93 E6        29.96S
ST CHARLES     MOCLDY    72  70  93 E5        29.96S

$$
MOZ072>076-082>087-097>100-106>115-210500-
...SOUTH CENTRAL AND SOUTHEAST MISSOURI...

CITY           SKY/WX    TMP DP  RH WIND       PRES   REMARKS
CAPE GIRARDEAU MOCLDY    82  74  76 S8        30.00S
FARMINGTON     CLOUDY    79  72  78 S6        30.02S
POPLAR BLUFF   MOCLDY    80  71  74 S8        29.99S
WEST PLAINS    MOCLDY    82  60  47 S6        30.04R

$$


USA.gov is the U.S. government's official web portal to all federal, state and local government web resources and services.